Wetbulb
62.13 63.10 62.93 62.85 63.30 63.48 63.50 63.49 63.06 62.43 62.52 62.60 62.82 63.04 63.58 63.42 62.29 60.49 54.45 60.71 65.42 70.57 69.19 63.47 60.12 60.44 60.18 58.21 58.83 58.51 47.81 43.41 44.34 44.85 41.37 45.49 42.45 44.88 45.09 41.49 42.62 42.91 41.93 43.69 45.93
61.84 62.45 62.71 61.96 62.91 63.31 63.11 62.93 62.47 62.52 62.63 62.85 62.94 63.20 63.24 62.94 60.25 56.04 63.19 68.70 68.97 70.22 60.78 57.65 56.98 58.40 55.24 55.65 55.07 52.07 45.05 44.43 48.20 47.09 44.24 45.32 44.43 44.08 42.40 41.15 40.26 40.60 43.73 45.04 44.89
62.09 62.24 62.23 62.14 62.63 63.44 62.87 62.77 62.70 62.66 62.62 62.69 63.10 63.43 63.33 61.25 56.30 54.08 68.24 68.76 69.20 66.97 59.94 59.05 58.91 57.26 53.35 53.29 51.25 49.61 43.29 46.35 46.81 46.63 46.45 44.11 41.46 44.38 40.80 37.05 39.24 38.40 40.50 42.68 42.78
61.78 61.81 61.52 61.85 62.66 63.43 62.89 62.83 62.81 62.67 62.61 62.97 63.66 63.62 62.64 60.58 46.55 56.30 67.61 68.90 69.54 64.15 59.35 58.64 57.59 53.97 50.32 48.35 51.02 44.94 47.61 46.51 45.99 46.22 44.46 41.19 41.96 38.82 39.27 38.39 41.79 41.65 42.29 41.95 40.74
61.40 61.05 61.18 61.89 62.53 63.43 62.98 63.03 63.00 62.91 63.17 63.85 63.36 62.73 59.53 53.49 52.04 58.17 67.06 65.66 60.54 58.91 57.07 56.11 54.24 52.28 47.90 47.62 47.93 44.75 45.55 46.01 45.45 44.15 42.90 42.93 39.44 38.19 38.15 41.10 42.27 42.95 42.58 40.51 40.10
59.82 60.59 61.23 61.78 63.04 63.63 63.30 63.20 63.22 63.28 63.32 62.95 63.03 62.09 57.56 48.22 57.39 59.54 58.92 58.20 57.99 57.89 56.30 56.50 53.49 53.71 49.95 48.61 47.02 46.22 44.34 42.93 43.07 42.70 42.16 39.84 39.01 39.78 38.75 41.08 40.87 41.53 40.19 39.63 39.89
60.22 61.09 61.87 62.19 63.17 63.52 63.38 63.08 62.89 62.84 62.20 62.82 63.58 61.78 53.66 51.23 57.87 58.70 59.54 57.42 57.44 57.76 55.69 56.66 56.79 53.55 50.05 45.14 46.97 45.28 41.28 42.40 42.45 43.12 40.48 41.36 36.40 35.28 38.98 40.56 39.78 39.04 38.47 39.90 40.16
60.43 61.98 62.11 62.58 63.00 63.01 63.06 63.08 62.15 61.48 61.68 62.90 63.70 60.49 51.07 57.59 58.53 57.48 58.71 56.25 56.81 57.11 55.77 56.15 56.44 53.91 50.23 48.49 46.45 44.42 42.57 38.18 43.04 42.52 42.70 41.72 32.66 36.93 39.18 38.26 37.40 37.69 36.91 38.67 39.48
60.06 61.56 61.87 62.06 61.92 61.85 61.69 61.39 61.40 62.03 62.85 62.92 60.05 57.37 50.90 59.99 54.93 56.46 56.98 55.40 55.97 55.26 55.87 57.01 54.53 49.73 48.67 44.57 41.88 42.53 38.75 38.70 39.01 43.69 43.48 41.24 33.34 36.88 38.95 38.54 36.22 35.86 35.99 37.52 38.01
58.68 59.59 60.01 60.15 60.30 59.98 59.93 60.56 61.47 61.00 61.74 60.56 56.80 52.38 53.43 51.20 55.25 55.86 57.19 56.59 55.00 54.66 53.05 53.47 51.07 46.85 46.57 43.51 36.79 39.11 38.96 41.29 37.83 39.80 41.37 39.90 32.61 35.77 37.48 37.31 33.76 33.89 35.61 35.77 37.11
59.65 57.43 57.99 58.19 59.05 59.47 59.71 58.70 55.38 53.51 54.30 50.84 50.99 50.92 51.65 54.43 55.82 53.79 55.03 54.39 54.80 51.88 46.24 49.40 44.41 39.69 41.04 42.50 42.84 42.12 40.56 38.67 38.89 40.45 38.40 37.24 34.86 34.55 36.26 34.97 33.60 34.07 34.50 35.17 36.56
59.05 59.72 57.52 58.27 59.39 59.77 59.44 56.71 55.26 55.90 48.97 53.53 52.94 52.30 53.78 54.04 51.05 51.48 54.27 51.19 51.37 45.73 47.54 44.58 39.28 43.45 45.21 45.06 43.45 42.28 39.47 36.72 38.29 40.35 37.02 36.43 34.68 35.30 35.76 35.53 35.20 33.96 33.94 34.41 35.74
58.68 58.55 58.81 59.25 59.15 59.32 59.04 57.28 61.36 59.17 50.55 50.66 52.43 51.08 51.59 53.12 48.62 48.71 51.49 51.02 47.58 45.11 43.42 41.14 42.31 46.13 44.78 41.88 41.12 40.00 37.63 36.41 35.80 37.77 37.73 35.15 32.63 32.59 35.66 36.43 36.76 36.31 36.21 36.07 35.54
58.11 58.38 58.16 57.96 57.73 59.55 57.40 61.51 62.47 60.71 46.85 47.08 49.39 50.36 52.50 52.70 47.79 52.38 51.98 49.59 48.51 44.32 44.93 42.45 45.19 44.42 42.81 41.22 40.54 37.52 40.82 39.30 38.42 34.19 29.79 34.87 25.56 30.44 32.54 32.86 34.82 34.57 33.77 33.86 34.87
57.48 58.51 58.12 55.05 57.92 57.61 59.96 62.30 61.06 57.60 38.38 47.85 49.24 54.35 52.56 49.09 49.58 49.72 52.47 50.75 44.97 45.19 44.33 40.36 42.05 41.49 40.94 40.69 41.74 39.17 40.59 38.98 38.51 34.81 31.99 31.85 26.88 26.87 33.00 30.49 32.60 33.02 34.28 34.08 34.39
57.56 57.31 56.95 60.05 60.50 60.57 62.14 61.59 56.34 45.06 36.61 45.47 49.91 48.49 48.40 49.08 48.79 50.81 50.06 50.73 49.14 45.99 44.63 42.53 45.42 43.21 41.08 43.27 42.89 43.19 39.52 38.10 37.06 34.37 27.97 30.90 29.86 25.38 28.21 30.55 32.00 32.91 33.06 33.89 34.17
56.63 57.43 60.20 61.45 57.98 61.69 61.68 55.90 46.01 40.73 46.92 44.57 45.81 48.47 46.99 45.54 46.57 47.01 45.26 42.70 40.83 38.49 38.66 42.48 41.84 43.52 43.68 40.07 42.50 40.75 35.92 29.77 27.80 26.55 27.12 33.93 29.70 25.94 30.60 32.10 31.79 30.47 31.25 32.54 33.54
55.42 55.98 58.65 60.01 61.36 61.09 57.68 50.65 42.53 44.66 44.59 48.00 47.84 47.39 44.60 45.29 44.91 46.10 45.04 41.32 42.75 41.15 39.58 36.55 34.77 39.54 42.35 38.38 35.00 36.67 34.08 28.38 22.17 24.48 27.37 32.89 24.48 25.24 32.11 33.10 33.76 34.09 33.18 33.55 32.84
54.12 60.34 60.13 59.55 60.30 57.78 53.22 45.39 41.54 45.34 47.44 46.48 46.49 44.83 43.81 45.44 44.15 44.56 41.53 40.60 40.13 40.52 36.68 35.13 36.27 40.79 41.55 40.72 38.30 36.31 31.89 33.46 29.39 30.72 26.07 29.56 25.57 29.79 32.35 31.86 31.78 32.36 32.72 31.45 31.78
58.64 58.05 57.72 59.73 59.74 56.82 51.11 43.89 45.42 47.50 48.14 48.07 43.92 44.80 42.63 43.28 43.02 42.93 41.24 41.48 41.82 41.63 40.99 37.96 33.63 39.96 40.50 40.32 38.87 35.14 35.85 29.45 29.56 22.17 21.42 28.38 26.41 23.74 27.34 29.32 31.20 30.31 29.94 30.65 31.82
58.12 54.49 58.34 59.62 58.20 54.27 46.86 44.93 46.15 48.03 48.63 46.13 45.35 44.31 43.73 42.95 42.89 41.66 40.80 41.06 42.33 41.73 41.10 38.01 35.87 35.14 37.49 35.98 34.29 34.72 33.13 32.80 30.54 28.14 21.88 20.57 22.91 28.87 27.76 29.10 27.41 28.72 30.97 30.41 30.68
57.62 51.85 58.83 58.72 51.14 50.52 46.47 47.68 46.48 47.72 49.61 48.30 47.80 46.29 43.94 43.52 42.29 41.68 40.79 40.73 41.34 40.61 37.59 36.81 34.29 32.27 32.98 35.12 36.37 34.82 32.36 32.09 26.01 25.35 26.28 24.56 23.31 31.18 29.93 31.01 31.28 30.34 31.29 31.41 31.54
55.56 53.51 59.12 58.32 47.45 45.08 46.68 45.73 47.57 47.52 46.68 47.23 45.66 46.09 45.43 42.94 40.37 42.24 41.65 41.15 41.18 39.98 36.23 37.15 34.87 30.49 28.99 31.24 32.94 32.10 33.68 32.76 31.61 29.04 24.09 21.11 23.34 31.74 30.73 30.48 31.67 29.73 30.43 30.53 31.04
55.59 49.50 53.35 53.99 51.62 48.27 45.77 45.42 43.84 47.05 46.38 46.83 45.03 45.68 44.02 42.39 43.33 41.06 41.08 42.27 40.12 40.78 39.50 38.20 35.69 33.16 30.17 31.22 32.48 30.87 32.32 32.51 30.21 24.04 25.16 26.09 26.27 27.66 29.82 29.32 29.77 29.95 29.62 29.22 28.84
53.49 50.82 50.46 47.32 48.12 48.97 48.51 46.80 44.19 43.44 46.50 46.60 44.41 44.92 43.95 40.25 40.78 40.58 42.07 39.52 39.90 40.54 38.06 36.05 32.19 33.54 34.78 35.88 35.23 33.13 32.09 32.13 29.02 29.26 23.91 28.17 28.13 28.28 28.16 27.76 28.32 29.62 30.20 29.48 27.49
52.58 50.51 50.26 47.56 49.49 47.98 45.04 45.41 45.18 43.19 44.30 43.79 43.91 44.35 43.02 40.96 40.02 40.43 42.01 39.95 38.75 36.65 35.53 36.48 32.01 31.47 30.55 31.97 30.95 29.56 31.83 31.75 31.10 30.90 30.30 30.58 27.44 29.99 29.47 29.82 29.45 27.62 29.25 27.81 25.72
53.46 52.71 52.39 44.51 47.47 46.39 45.72 45.64 45.80 44.16 43.20 43.57 44.50 43.12 41.53 39.71 41.32 40.47 40.45 39.54 38.74 36.59 35.77 34.49 31.89 30.34 27.03 30.67 31.72 28.68 31.66 30.99 30.44 31.56 30.29 24.77 26.83 29.68 28.56 29.87 28.47 27.66 28.15 25.90 21.87
MSLP
1016.22 1016.33 1016.51 1016.64 1016.69 1016.73 1016.71 1016.78 1016.88 1016.79 1016.69 1016.55 1016.47 1016.41 1016.35 1016.20 1015.74 1015.51 1015.40 1015.97 1015.36 1014.51 1013.89 1013.12 1012.18 1011.82 1011.76 1012.00 1012.05 1012.56 1014.70 1017.25 1018.85 1019.79 1022.00 1022.60 1023.49 1024.44 1025.38 1025.80 1026.31 1026.89 1027.67 1027.97 1027.98
1016.42 1016.46 1016.60 1016.70 1016.77 1016.74 1016.80 1016.93 1016.83 1016.84 1016.81 1016.67 1016.54 1016.59 1016.62 1016.53 1015.80 1015.41 1015.97 1015.45 1015.12 1014.56 1013.58 1012.71 1012.15 1012.00 1012.58 1013.23 1013.75 1014.21 1016.98 1018.93 1019.61 1020.53 1021.88 1023.08 1023.97 1024.87 1025.74 1026.58 1027.24 1027.79 1028.12 1028.21 1028.48
1016.40 1016.41 1016.53 1016.73 1016.80 1016.77 1016.86 1016.96 1016.99 1016.99 1016.97 1016.85 1016.60 1016.72 1016.82 1016.66 1015.48 1015.78 1015.41 1015.00 1014.67 1014.50 1013.78 1013.15 1012.54 1012.97 1013.95 1014.76 1015.71 1016.98 1019.08 1020.51 1021.28 1022.23 1023.11 1024.06 1025.07 1025.77 1026.15 1027.57 1028.20 1028.40 1028.59 1028.75 1028.97
1016.45 1016.43 1016.61 1016.75 1016.87 1016.85 1017.05 1017.23 1017.26 1017.14 1017.13 1017.01 1016.98 1016.94 1016.71 1016.06 1016.10 1015.70 1015.29 1014.79 1014.32 1013.85 1013.49 1013.03 1012.96 1013.74 1015.30 1016.45 1017.29 1018.87 1020.34 1021.37 1022.70 1023.34 1023.98 1024.97 1026.04 1027.04 1027.17 1028.34 1028.61 1028.88 1029.19 1029.44 1029.57
1016.56 1016.60 1016.81 1016.98 1017.11 1017.12 1017.35 1017.46 1017.42 1017.30 1017.19 1017.14 1017.26 1017.16 1016.61 1015.98 1016.17 1015.53 1015.30 1014.66 1014.00 1013.60 1013.39 1013.14 1013.58 1014.78 1016.29 1017.84 1018.76 1019.92 1021.41 1022.37 1023.32 1024.08 1024.83 1025.64 1026.57 1027.24 1028.12 1028.49 1028.82 1029.10 1029.59 1029.99 1030.25
1016.78 1016.82 1017.03 1017.24 1017.29 1017.44 1017.54 1017.54 1017.50 1017.43 1017.23 1017.26 1017.19 1017.29 1016.72 1016.14 1016.12 1015.63 1015.39 1014.99 1014.52 1014.30 1014.09 1013.95 1014.58 1015.33 1016.89 1018.09 1018.99 1020.89 1022.11 1023.23 1024.12 1024.54 1025.50 1026.01 1026.89 1027.12 1028.57 1028.66 1028.90 1029.35 1029.93 1030.23 1030.53
1016.98 1017.09 1017.25 1017.45 1017.53 1017.64 1017.65 1017.56 1017.54 1017.42 1017.18 1017.13 1017.12 1016.73 1016.18 1016.77 1016.16 1015.84 1015.33 1015.32 1015.20 1014.86 1014.88 1014.96 1015.06 1015.70 1017.56 1019.44 1020.67 1021.41 1022.51 1023.43 1024.07 1024.40 1025.27 1025.79 1026.96 1027.97 1028.52 1028.77 1028.95 1029.29 1029.78 1030.27 1030.68
1017.31 1017.45 1017.54 1017.69 1017.74 1017.79 1017.65 1017.59 1017.54 1017.30 1016.91 1016.77 1016.85 1016.21 1016.57 1016.58 1016.31 1016.05 1015.55 1015.51 1015.52 1015.46 1015.51 1015.50 1015.57 1016.37 1017.80 1019.64 1020.61 1020.88 1022.10 1022.85 1023.51 1024.25 1024.86 1025.58 1026.92 1028.19 1028.49 1028.63 1028.99 1029.34 1029.91 1030.42 1030.78
1017.70 1017.81 1017.86 1017.95 1017.95 1017.86 1017.66 1017.64 1017.45 1017.17 1016.78 1016.49 1016.42 1015.71 1016.39 1016.58 1016.56 1016.43 1016.34 1016.03 1015.71 1015.74 1015.67 1015.73 1016.23 1017.64 1018.97 1019.32 1020.08 1020.63 1020.63 1021.73 1022.97 1023.67 1024.19 1025.09 1026.73 1027.96 1028.33 1028.66 1029.15 1029.61 1030.01 1030.46 1030.94
1018.09 1018.19 1018.19 1018.17 1018.16 1018.01 1017.88 1017.81 1017.38 1017.02 1016.55 1015.86 1015.50 1016.01 1016.73 1016.99 1016.99 1016.58 1016.44 1016.21 1015.85 1015.74 1015.86 1015.89 1016.34 1017.51 1018.21 1019.06 1019.76 1019.99 1020.01 1020.61 1022.16 1023.48 1024.09 1024.93 1026.76 1027.87 1028.53 1028.91 1029.25 1029.71 1030.20 1030.58 1030.94
1018.21 1018.41 1018.42 1018.45 1018.32 1018.32 1017.78 1017.69 1017.64 1016.87 1016.72 1016.99 1017.02 1016.83 1017.16 1017.08 1016.93 1016.86 1016.53 1016.11 1015.69 1015.53 1016.09 1016.29 1017.30 1018.56 1019.36 1019.64 1019.85 1019.83 1020.02 1020.70 1022.30 1023.55 1024.22 1024.84 1026.06 1027.58 1028.56 1029.05 1029.45 1029.80 1030.27 1030.66 1031.09
1018.27 1018.53 1018.66 1018.63 1018.47 1018.46 1018.24 1017.28 1017.42 1017.07 1017.41 1017.34 1017.28 1017.44 1017.61 1017.50 1017.13 1017.40 1016.82 1016.34 1015.88 1016.48 1016.73 1017.57 1018.94 1019.71 1019.68 1019.62 1019.67 1019.70 1020.17 1021.25 1022.38 1023.42 1024.43 1024.77 1025.88 1027.23 1028.41 1029.07 1029.55 1030.11 1030.57 1030.76 1031.03
1018.45 1018.51 1018.55 1018.55 1018.49 1018.36 1017.53 1017.68 1017.31 1016.92 1017.00 1017.82 1017.63 1017.86 1018.15 1017.91 1018.40 1018.46 1018.13 1017.23 1017.14 1017.48 1018.14 1018.60 1020.02 1019.99 1019.89 1020.24 1020.19 1019.91 1020.88 1021.77 1022.77 1023.49 1024.18 1025.08 1025.61 1026.97 1028.22 1028.89 1029.65 1030.09 1030.25 1030.72 1031.18
1018.50 1018.48 1018.58 1018.59 1018.84 1017.39 1017.56 1017.57 1017.35 1017.35 1017.12 1018.12 1017.80 1018.20 1018.14 1018.24 1018.93 1019.00 1018.87 1018.67 1018.12 1018.59 1019.02 1019.88 1020.41 1020.44 1020.38 1020.84 1021.33 1021.27 1021.73 1022.18 1022.59 1023.48 1024.18 1024.97 1026.07 1026.77 1027.88 1028.86 1029.61 1030.00 1030.42 1030.88 1031.58
1018.61 1018.58 1018.65 1018.81 1018.64 1017.43 1017.96 1017.59 1017.59 1017.53 1017.63 1018.67 1018.34 1018.44 1018.26 1018.65 1019.29 1019.18 1019.06 1018.49 1019.05 1019.30 1019.79 1020.94 1021.14 1021.21 1021.28 1021.90 1021.98 1021.88 1021.98 1022.22 1022.69 1023.26 1024.07 1024.81 1026.29 1026.51 1027.57 1028.99 1029.51 1030.04 1030.62 1031.35 1031.59
1018.73 1018.65 1018.51 1018.56 1018.30 1018.24 1017.97 1017.80 1017.77 1018.00 1018.32 1018.67 1018.57 1018.56 1018.43 1018.95 1019.41 1019.27 1019.18 1019.34 1019.82 1019.88 1020.45 1021.34 1021.75 1022.03 1022.42 1022.31 1022.23 1022.02 1021.93 1022.09 1022.60 1023.19 1023.86 1024.23 1025.62 1027.22 1028.35 1028.71 1029.48 1030.39 1030.86 1031.23 1031.75
1019.02 1018.73 1018.49 1018.45 1018.69 1018.36 1018.12 1017.87 1018.01 1017.85 1018.80 1018.95 1018.92 1018.76 1018.92 1019.46 1019.72 1019.93 1020.19 1020.66 1021.14 1021.16 1021.18 1021.65 1022.08 1022.48 1022.64 1022.41 1022.44 1022.39 1021.90 1022.38 1023.14 1023.44 1023.53 1023.97 1025.58 1027.56 1028.43 1029.31 1030.05 1030.52 1030.95 1031.33 1031.98
1019.26 1018.98 1019.05 1019.08 1018.83 1018.46 1018.10 1018.08 1018.09 1018.76 1018.86 1019.32 1019.25 1019.14 1019.32 1020.00 1020.30 1020.34 1020.53 1021.61 1022.44 1022.51 1022.17 1022.35 1022.86 1023.13 1023.40 1023.73 1023.82 1023.42 1023.42 1023.98 1024.48 1024.04 1023.96 1024.27 1026.12 1027.92 1028.83 1029.63 1030.12 1030.58 1031.12 1031.76 1032.52
1019.39 1018.79 1018.92 1019.10 1018.99 1018.75 1018.61 1018.36 1019.56 1019.36 1019.54 1019.47 1019.52 1019.19 1019.68 1020.14 1020.53 1020.70 1021.92 1023.02 1024.06 1024.02 1024.07 1023.54 1023.64 1023.90 1024.01 1024.19 1024.38 1023.82 1024.09 1024.77 1024.97 1024.30 1024.87 1024.65 1027.10 1028.39 1029.08 1029.87 1030.16 1030.68 1031.31 1032.27 1032.90
1019.26 1018.87 1019.17 1019.14 1018.93 1018.87 1018.88 1019.57 1020.19 1020.65 1020.40 1019.99 1019.69 1019.90 1019.66 1020.40 1020.64 1021.03 1022.35 1024.25 1024.68 1025.13 1025.06 1024.60 1024.40 1024.07 1024.40 1024.59 1024.60 1024.58 1024.79 1025.07 1025.36 1025.55 1025.60 1025.22 1026.50 1027.74 1029.20 1029.69 1030.38 1031.06 1031.76 1032.24 1032.79
1019.68 1019.15 1019.29 1019.03 1018.99 1019.00 1019.45 1020.47 1021.07 1021.50 1021.24 1020.98 1020.61 1020.50 1020.78 1021.03 1021.43 1022.07 1023.49 1024.97 1025.43 1025.62 1025.63 1025.33 1025.02 1024.78 1024.68 1024.76 1024.90 1025.07 1024.88 1025.18 1025.85 1026.26 1026.86 1026.74 1027.06 1027.81 1029.16 1029.90 1030.59 1031.13 1031.64 1032.35 1033.08
1019.70 1019.58 1019.39 1019.15 1019.39 1019.27 1020.26 1021.02 1021.62 1021.88 1021.71 1021.57 1021.39 1021.50 1021.62 1021.91 1022.29 1023.02 1024.22 1025.54 1026.40 1026.51 1026.30 1026.40 1026.01 1025.33 1025.19 1025.35 1025.32 1025.28 1025.37 1025.77 1026.47 1026.88 1027.29 1027.71 1027.75 1028.45 1029.06 1029.76 1030.30 1031.14 1031.86 1032.55 1033.32
1019.86 1019.79 1019.42 1019.34 1019.59 1020.37 1021.27 1021.84 1022.22 1022.25 1022.36 1022.15 1022.38 1022.47 1022.40 1022.74 1023.41 1023.94 1025.04 1026.49 1026.92 1027.18 1027.55 1027.35 1026.40 1025.97 1025.76 1025.96 1025.71 1025.61 1025.61 1026.07 1026.80 1027.44 1027.61 1028.43 1027.90 1028.18 1028.92 1029.72 1030.39 1031.22 1032.09 1032.95 1033.74
1020.28 1020.04 1019.85 1019.57 1019.67 1019.90 1020.80 1021.73 1022.60 1023.01 1023.04 1023.00 1023.15 1023.03 1023.08 1023.40 1023.85 1024.48 1025.57 1026.83 1027.42 1027.71 1028.04 1027.83 1027.17 1026.65 1026.28 1025.55 1025.56 1025.64 1025.84 1026.43 1027.08 1027.78 1027.38 1027.42 1027.56 1028.52 1029.15 1029.92 1030.67 1031.46 1032.39 1033.25 1034.15
1020.54 1020.49 1020.49 1020.20 1020.07 1020.06 1020.59 1021.58 1022.49 1023.26 1023.43 1023.48 1023.58 1023.57 1023.52 1023.90 1024.31 1024.88 1025.79 1027.06 1027.73 1028.24 1028.12 1027.96 1027.61 1026.73 1026.08 1025.49 1025.45 1025.56 1026.06 1026.56 1026.98 1027.05 1027.66 1026.38 1027.31 1028.30 1029.02 1029.96 1030.98 1031.93 1032.83 1033.80 1034.52
1020.87 1020.70 1020.60 1020.67 1020.28 1020.73 1021.45 1021.87 1022.44 1023.62 1024.00 1024.13 1024.11 1024.30 1024.43 1024.74 1025.25 1025.34 1025.82 1026.57 1027.22 1028.26 1028.21 1028.17 1027.95 1027.27 1026.35 1025.71 1025.82 1025.72 1025.84 1026.19 1026.52 1026.73 1026.73 1026.80 1027.53 1028.25 1029.06 1030.10 1031.30 1032.47 1033.48 1034.40 1035.11
1021.13 1020.75 1020.62 1021.54 1021.05 1021.27 1021.70 1022.26 1022.85 1023.67 1025.07 1025.13 1024.90 1025.15 1025.65 1026.19 1026.16 1026.31 1026.44 1026.83 1027.14 1027.74 1028.18 1028.34 1028.32 1028.05 1027.09 1026.38 1026.09 1025.76 1025.19 1025.77 1025.77 1025.92 1026.07 1026.81 1027.70 1028.44 1029.62 1030.72 1031.90 1033.12 1034.10 1034.95 1035.71
Wind_Speed
3 2 3 3 3 4 4 4 3 1 2 4 6 7 9 11 14 1 11 7 9 18 17 10 7 4 6 4 6 1 8 7 5 8 9 11 7 10 14 19 18 10 11 9 9
2 2 3 3 3 4 4 3 2 1 2 4 7 8 9 11 3 14 5 7 9 12 12 10 6 4 6 8 6 8 6 6 9 11 11 13 11 9 10 13 13 9 10 10 10
4 4 4 2 3 4 4 3 3 1 2 4 8 9 9 9 1 8 10 10 10 9 6 6 6 10 9 8 9 5 6 10 13 13 13 15 15 6 13 10 9 9 8 9 10
5 5 3 2 3 4 4 3 1 0 2 6 7 11 11 5 4 8 11 12 12 11 11 2 2 6 6 9 9 15 10 11 11 12 11 8 10 13 16 8 8 8 8 9 10
5 4 2 3 4 4 4 3 1 2 5 7 7 7 6 6 7 9 10 8 6 5 8 8 11 11 7 10 16 15 12 12 12 13 11 13 12 12 9 8 7 8 9 9 9
4 2 3 4 4 4 4 3 2 4 7 7 7 7 4 13 7 7 6 8 11 10 12 12 13 14 8 8 8 11 15 16 12 11 11 11 9 5 6 6 7 8 8 8 9
4 3 5 5 4 5 5 3 3 6 8 8 7 6 16 7 2 7 4 6 8 9 10 6 3 6 8 13 18 19 13 11 8 7 5 14 7 7 6 4 5 7 7 7 8
5 5 6 5 6 5 3 1 5 7 10 10 6 4 6 1 6 10 11 8 8 7 7 5 8 8 7 17 10 6 8 5 6 8 7 1 4 6 6 5 5 5 7 7 8
5 5 5 5 5 3 1 4 8 9 11 11 4 5 6 2 5 7 6 5 3 6 3 9 10 8 10 8 5 6 4 7 6 9 2 8 4 7 4 4 4 5 7 7 7
5 2 3 3 1 3 5 6 6 11 7 5 5 10 6 5 3 5 4 5 2 2 5 4 4 6 2 4 4 8 6 4 9 2 7 6 9 7 5 4 3 4 7 6 7
6 2 2 0 2 5 5 3 4 3 12 8 9 10 7 6 3 8 7 4 4 3 4 3 7 8 7 6 6 7 6 3 4 3 3 3 7 8 6 4 4 5 6 6 7
4 5 3 1 3 5 3 4 3 3 9 8 10 10 7 6 4 16 16 3 2 5 3 6 6 6 8 2 5 5 6 3 4 5 2 5 6 10 7 4 6 5 5 5 6
4 3 1 2 6 3 3 4 5 7 2 4 5 6 3 7 6 10 11 8 5 10 11 9 3 3 5 7 8 2 3 5 5 4 6 6 5 10 8 7 5 5 5 5 6
4 4 3 2 2 2 3 2 4 4 3 4 4 5 5 3 4 5 6 1 2 6 6 6 1 4 3 5 7 3 5 5 7 2 3 6 4 6 9 7 6 5 4 6 8
6 5 3 2 7 1 3 3 5 2 3 3 4 3 5 5 2 5 4 3 7 4 3 2 5 7 6 4 5 3 2 4 4 5 5 7 2 2 9 6 7 6 7 8 7
7 6 5 2 3 2 3 5 2 3 4 4 2 1 4 8 3 2 2 4 2 2 8 5 1 3 4 6 5 10 7 9 4 3 4 6 3 5 3 4 7 8 7 6 7
6 9 4 4 3 5 5 3 3 2 2 4 3 2 5 5 4 4 6 8 5 3 2 5 4 4 5 5 4 7 9 3 3 1 3 6 3 4 7 9 8 3 5 6 8
7 6 3 3 5 5 3 3 2 2 6 1 1 3 4 5 3 2 3 4 10 7 4 3 2 6 6 4 3 5 4 3 5 4 6 6 3 3 8 7 5 2 6 8 8
7 2 1 3 4 3 3 1 4 6 3 2 3 4 4 3 2 2 6 4 5 8 6 5 3 2 4 3 4 5 4 2 4 8 4 4 5 3 6 6 3 6 7 8 8
3 2 2 4 3 2 2 4 4 4 4 3 3 4 4 4 2 2 3 3 3 5 6 4 3 1 3 2 0 2 3 1 2 5 6 6 3 4 7 4 7 6 6 6 6
2 2 2 4 2 3 3 4 5 4 5 6 4 2 5 3 5 3 4 2 5 4 5 4 2 1 0 2 4 1 2 2 1 2 3 6 4 4 8 5 0 4 6 6 7
2 1 2 3 1 2 3 4 2 2 1 3 3 7 6 5 4 3 4 5 4 4 4 3 3 4 4 3 3 2 3 1 1 2 4 4 4 7 7 5 4 6 6 6 7
1 2 1 1 2 3 3 4 5 2 4 3 3 5 2 3 1 3 5 3 3 4 4 5 2 4 1 1 0 5 5 0 3 1 6 1 5 7 7 4 7 5 7 7 7
2 2 1 1 1 6 5 4 4 3 3 3 3 1 2 2 2 3 3 2 2 4 1 1 3 3 4 2 3 5 5 6 4 2 4 7 3 7 4 5 5 7 8 8 7
3 2 1 3 1 3 3 4 4 3 2 2 1 3 2 2 3 3 4 4 2 3 2 2 3 4 8 11 7 6 7 7 9 9 4 5 8 6 6 5 6 8 8 7 7
1 2 0 2 3 8 1 5 5 3 1 3 1 4 2 2 4 3 2 3 4 3 2 3 3 2 6 3 2 7 8 8 9 9 12 14 7 5 4 7 8 8 7 6 6
1 0 1 2 2 2 2 4 5 8 2 4 2 4 4 2 5 4 5 4 4 1 5 2 2 3 7 2 7 8 3 11 5 6 5 4 3 3 5 5 5 7 6 5 6
Wind_Direction
60 99 85 94 119 135 147 170 168 147 326 333 331 340 335 335 314 288 42 330 314 311 308 258 236 312 71 14 5 192 80 59 33 115 139 128 99 82 90 80 65 68 74 65 41
64 91 80 83 117 125 139 135 101 34 12 344 329 328 329 329 254 55 310 325 325 318 336 4 16 163 52 19 30 56 72 40 69 94 112 110 85 84 79 69 74 74 62 61 52
54 56 42 72 117 112 99 82 78 24 7 323 312 316 329 311 354 39 352 335 313 293 292 286 295 87 69 46 16 13 98 77 76 85 92 88 58 44 128 63 54 65 58 46 52
28 36 40 98 116 110 106 98 102 265 310 291 308 321 322 264 69 16 348 313 297 286 262 204 15 37 38 83 83 109 98 107 105 114 97 89 86 72 75 95 87 69 61 50 40
30 47 90 142 147 124 129 129 170 279 281 292 312 325 303 79 33 355 327 339 280 348 2 359 122 94 96 101 78 81 98 84 86 86 90 86 76 95 96 109 101 85 65 52 45
37 51 152 156 145 141 139 143 218 268 280 289 300 325 250 73 319 5 353 16 8 53 15 46 71 86 80 26 53 109 102 108 116 120 134 117 127 112 117 128 110 89 72 59 53
60 105 145 149 150 151 160 175 252 273 278 285 304 287 65 61 39 349 29 37 35 41 63 36 313 53 100 88 115 124 111 119 139 149 130 143 102 103 129 133 118 104 91 87 55
76 109 130 145 150 159 161 212 258 272 283 292 314 265 76 158 357 26 345 77 57 75 68 16 67 64 65 120 156 113 160 159 178 151 177 198 113 135 166 145 126 98 81 58 54
98 81 119 130 134 142 105 276 276 283 283 292 263 177 82 129 29 344 31 18 87 96 57 76 80 98 141 158 185 178 276 123 166 191 186 193 127 146 180 172 120 80 75 51 46
119 104 98 92 94 19 336 308 309 283 235 262 288 116 31 30 360 313 6 304 318 197 174 205 136 147 257 356 19 335 329 85 119 110 195 243 115 151 184 184 135 80 61 47 47
122 158 106 117 35 8 322 255 231 83 44 59 31 82 60 321 150 8 335 300 237 318 108 263 63 40 6 344 318 285 325 12 112 126 308 232 151 158 169 201 193 62 40 31 38
101 155 137 275 347 330 294 292 23 88 79 50 93 85 57 302 348 10 340 329 299 97 173 61 62 14 298 312 286 310 325 73 115 135 184 187 204 146 165 174 69 29 12 345 37
72 130 181 313 345 289 43 51 338 3 139 59 66 47 11 4 38 1 358 332 10 67 64 66 36 309 324 38 354 290 16 13 317 155 209 290 253 147 167 126 151 208 226 31 45
50 79 70 52 333 174 60 15 360 330 193 42 23 47 10 325 66 15 350 354 60 62 70 72 57 306 251 87 358 292 23 310 294 146 298 176 298 166 161 186 176 229 76 29 46
41 66 82 153 309 21 51 344 338 249 188 10 57 329 71 71 305 44 293 13 43 37 236 56 49 351 38 7 341 336 320 284 301 280 276 187 265 90 142 190 195 111 53 36 41
50 42 8 160 220 28 332 323 258 235 93 103 51 325 172 58 40 170 72 72 357 67 54 95 215 47 343 300 258 285 257 220 225 230 252 126 194 189 147 192 100 57 42 24 27
17 28 32 308 15 337 310 267 258 5 251 99 55 34 89 25 62 25 68 43 31 337 130 165 77 126 328 282 196 326 324 28 305 205 232 145 257 70 104 70 75 51 39 28 33
348 343 36 35 341 317 269 266 356 6 49 63 163 114 61 347 86 33 234 79 38 345 309 327 210 351 352 47 321 310 357 52 307 320 284 121 260 161 104 113 146 58 50 40 24
329 153 109 30 335 310 276 307 20 31 21 136 192 258 121 126 325 240 55 46 42 13 18 1 86 148 56 4 350 340 49 345 284 254 271 175 97 86 148 162 170 41 46 32 34
286 181 75 326 340 277 263 87 84 38 334 293 359 334 46 33 256 348 50 353 54 41 338 29 287 12 110 250 270 355 293 317 264 319 303 311 125 181 182 163 41 8 42 30 35
309 245 52 341 320 250 27 58 104 52 357 2 16 101 49 53 357 56 55 71 36 2 305 347 211 155 138 201 33 262 216 231 23 195 259 301 253 70 99 91 282 22 55 34 43
326 174 344 329 162 354 70 58 327 104 5 45 21 25 34 11 41 73 69 44 8 332 5 58 326 280 75 74 360 326 339 282 193 344 261 251 273 115 141 185 93 63 51 49 49
4 110 226 18 143 105 152 88 43 124 30 32 76 21 342 66 108 28 85 105 33 25 24 0 225 303 232 340 271 245 169 229 352 68 242 178 284 175 194 116 70 63 69 50 38
320 114 22 64 229 117 143 136 107 13 80 42 118 268 192 143 9 137 131 130 70 55 2 339 297 248 257 309 171 260 183 187 208 249 302 251 323 194 165 73 49 55 66 48 32
10 71 299 163 224 125 67 131 127 133 58 279 139 294 328 140 172 135 92 141 173 125 246 332 264 357 287 281 282 255 257 251 208 235 257 275 323 61 83 57 57 70 61 37 22
95 163 87 35 77 106 159 185 137 120 60 159 268 94 4 41 21 48 141 196 97 170 271 140 272 308 282 69 252 258 232 237 244 260 261 272 294 103 101 60 49 57 52 28 20
328 247 47 291 178 208 143 144 136 124 19 21 26 125 112 77 45 60 62 64 62 35 196 230 303 0 269 227 291 294 232 193 204 207 223 244 128 109 58 39 76 74 53 31 28